This is the latest recevied weather packets stored in our database for station/object KB1WCR. If no packets are shown the sender has not sent any weather packets the latest 10 day(s).
| Time | Temp. | Humidity | Pressure | Rain* | Wind** | Luminosity | Snow |
|---|---|---|---|---|---|---|---|
| 1788447521 | 16.67° C | 99% | 1015.6 hPa | 0 mm | - | 180 W/m² | - |
| 1788447217 | 17.22° C | 99% | 1015.4 hPa | 0 mm | - | 169 W/m² | - |
| 1788446916 | 16.67° C | 99% | 1015.3 hPa | 0 mm | - | 137 W/m² | - |
| 1788446611 | 16.67° C | 99% | 1015.4 hPa | 0 mm | - | 166 W/m² | - |
| 1788446306 | 16.67° C | 99% | 1015.4 hPa | 0 mm | - | 110 W/m² | - |
| 1788446003 | 16.67° C | 99% | 1015.5 hPa | 0 mm | - | 126 W/m² | - |
| 1788445699 | 16.67° C | 99% | 1015.6 hPa | 0 mm | - | 131 W/m² | - |
| 1788445395 | 16.67° C | 99% | 1015.6 hPa | 0 mm | - | 179 W/m² | - |
| 1788445090 | 16.67° C | 99% | 1015.8 hPa | 0 mm | - | 156 W/m² | - |
| 1788444786 | 16.67° C | 99% | 1015.6 hPa | 0 mm | - | 147 W/m² | - |
| 1788444486 | 16.67° C | 99% | 1015.7 hPa | 0 mm | - | 129 W/m² | - |
| 1788444180 | 16.11° C | 99% | 1015.7 hPa | 0 mm | - | 132 W/m² | - |
| 1788443876 | 16.11° C | 99% | 1016 hPa | 0 mm | - | 108 W/m² | - |
| 1788443572 | 16.11° C | 99% | 1015.8 hPa | 0 mm | - | 99 W/m² | - |
| 1788443270 | 16.11° C | 99% | 1015.7 hPa | 0 mm | - | 111 W/m² | - |
| 1788442967 | 16.11° C | 99% | 1015.9 hPa | 0 mm | - | 99 W/m² | - |
| 1788442663 | 16.11° C | 99% | 1015.8 hPa | 0 mm | - | 92 W/m² | - |
| 1788442360 | 16.11° C | 99% | 1015.8 hPa | 0 mm | - | 45 W/m² | - |
| 1788442060 | 16.11° C | 99% | 1015.9 hPa | 0 mm | - | 79 W/m² | - |
| 1788441755 | 16.11° C | 99% | 1015.8 hPa | 0 mm | - | 61 W/m² | - |
| 1788441450 | 16.11° C | 99% | 1016 hPa | 0 mm | - | 60 W/m² | - |
| 1788441145 | 16.11° C | 99% | 1015.9 hPa | 0 mm | - | 59 W/m² | - |
| 1788440845 | 16.11° C | 99% | 1016 hPa | 0 mm | - | 66 W/m² | - |
| 1788440540 | 16.11° C | 99% | 1015.8 hPa | 0 mm | - | 72 W/m² | - |
| 1788440238 | 16.11° C | 99% | 1016.1 hPa | 0 mm | - | 96 W/m² | - |
* Rain latest hour (hover to see other rain measurements)
** Current wind speed in m/s (hover to see current wind gust speed)